Terug naar catalogus

STARLINK-31223

ActiefCommunicatieVLEO
NORAD 58865·PAYLOAD·🇺🇸 United States

Gelanceerd Jan 29, 2024 vanaf Cape Canaveral Space Force Station

Loading…

Volgende Passages (komende 24 uur)

TLE

VersSource: CelesTrak SupGP

Epoch: Sep 14, 2026, 21:14 UTC

1 58865C 24019N   26257.88520833  .00026094  00000+0  94549-3 0  2578
2 58865  43.0026 260.4715 0001512 265.4191 222.0749 15.27552756    13

Volg STARLINK-31223 in realtime met AllMySat

Download on the App Store